Regional Weather Roundup
Issued by NWS Raleigh/Durham, NC

Home | Current Version | Previous Version | Text Only | Print | Product List | Glossary On
Versions: 1 2 3 4 5 6 7 8 9 10 11 12 13 14 15 16 17 18 19 20 21 22 23 24 25 26 27 28 29 30 31 32 33 34 35 36 37 38 39 40 41 42 43 44 45 46 47 48 49 50
000
ASUS42 KRAH 302010
RWRRAH
NORTH CAROLINA WEATHER ROUNDUP
NATIONAL WEATHER SERVICE RALEIGH NC
400 PM EDT SUN APR 30 2017

NOTE: "FAIR" INDICATES FEW OR NO CLOUDS BELOW 12,000 FEET WITH NO
SIGNIFICANT WEATHER AND/OR OBSTRUCTIONS TO VISIBILITY.

NCZ001-053-055-056-065-067-302100-
WESTERN NORTH CAROLINA

CITY           SKY/WX    TMP DP  RH WIND       PRES   REMARKS
ASHEVILLE      PTSUNNY   77  55  46 S15G23    30.13F
JEFFERSON      PTSUNNY   72  56  55 S6        30.19F
HICKORY        MOSUNNY   80  63  55 VRB7      30.10F
RUTHERFORDTON  PTSUNNY   81  63  53 SW6G20    30.11F
MOUNT AIRY     NOT AVBL
BOONE          NOT AVBL
$$

NCZ021-022-025-041-071-084-088-302100-
CENTRAL NORTH CAROLINA

CITY           SKY/WX    TMP DP  RH WIND       PRES   REMARKS
CHARLOTTE      NOT AVBL
GREENSBORO     CLOUDY    80  65  59 S12       30.12F
WINSTON-SALEM  MOSUNNY   80  60  50 SW6       30.14F
RALEIGH-DURHAM PTSUNNY   85  66  53 SW14      30.13F
FORT BRAGG     MOSUNNY   85  68  57 S10G17    30.12F
FAYETTEVILLE   PTSUNNY   86  71  60 S12       30.12F
BURLINGTON     PTSUNNY   82  65  56 S7        30.12F
LAURINBURG     PTSUNNY   86  68  54 SW15G22   30.12F
$$

NCZ011-015-027-028-043-044-047-080-103-302100-
NORTHEASTERN NORTH CAROLINA

CITY           SKY/WX    TMP DP  RH WIND       PRES   REMARKS
ROCKY MT-WILSO MOSUNNY   84  68  58 SW7       30.12F
GREENVILLE     MOSUNNY   88  70  55 SW12G18   30.14F
WASHINGTON     MOSUNNY   84  69  61 SW9       30.14S
ELIZABETH CITY MOSUNNY   84  69  60 SW13      30.13F
MANTEO         MOSUNNY   81  71  71 S20       30.14F
CAPE HATTERAS  MOSUNNY   80  71  74 SW12      30.19F HAZE
$$

NCZ078-087-090-091-093-098-101-302100-
SOUTHEASTERN NORTH CAROLINA

CITY           SKY/WX    TMP DP  RH WIND       PRES   REMARKS
LUMBERTON      SUNNY     84  69  60 S13G21    30.12F
GOLDSBORO      MOSUNNY   87  69  56 S13G18    30.11F
KINSTON        PTSUNNY   88  64  45 SW16      30.14F
KENANSVILLE    MOSUNNY   84  66  54 SW6       30.15S
NEW BERN       MOSUNNY   84  67  56 SW17G24   30.16F
CHERRY POINT   MOSUNNY   83  68  60 SW12G30   30.17F
BEAUFORT       MOSUNNY   79  73  82 SW16      30.19F
JACKSONVILLE   SUNNY     82  71  69 S15G22    30.16F
WILMINGTON     MOSUNNY   84  66  54 SW13G26   30.18F
$$




USA.gov is the U.S. government's official web portal to all federal, state and local government web resources and services.